Jackson, KY

5:09 AM EDT on August 26, 2016 (GMT -0400)
Carroll

Weather History for KJKL - January, 2012

Change the Weather History Date:

Friday, January 13, 2012

  Actual Average Record
Temperature  
Mean Temperature 20 °F 35 °F  
Max Temperature 23 °F 43 °F 72 °F (2005)
Min Temperature 17 °F 27 °F 8 °F (1997)
Degree Days  
Heating Degree Days 45 30  
Month to date heating degree days 343 390  
Since 1 July heating degree days 1720 2024  
Cooling Degree Days 0 0  
Month to date cooling degree days 0 0  
Year to date cooling degree days 0 0  
Moisture  
Dew Point 15 °F    
Average Humidity 76    
Maximum Humidity 84    
Minimum Humidity 67    
Precipitation  
Precipitation 0.03 in 0.11 in 0.85 in (2013)
Month to date precipitation 1.56 1.49  
Year to date precipitation 1.56 1.49  
Snow  
Snow 0.40 in 0.20 in 2.50 in (1982)
Month to date snowfall 1.4 2.8  
Since 1 July snowfall 1.8 8.3  
Snow Depth 1.00 in    
Sea Level Pressure  
Sea Level Pressure 29.91 in    
Wind  
Wind Speed 8 mph (WSW)    
Max Wind Speed 18 mph    
Max Gust Speed 31 mph    
Visibility 4 miles    
Events Fog , Snow    
T = Trace of Precipitation, MM = Missing Value Source: NWS Daily Summary

Daily Weather History Graph

Daily Weather History Graph

Search for Another Location

Airport or City:

Trip Planner

Search our weather history database for the weather conditions in past years. The results will help you decide how hot, cold, wet, or windy it might be!

Date:

Astronomy

Jan. 13, 2012 Rise Set
Actual Time 7:47 AM EST 5:36 PM EST
Civil Twilight 7:18 AM EST 6:04 PM EST
Nautical Twilight 6:46 AM EST 6:37 PM EST
Astronomical Twilight 6:15 AM EST 7:08 PM EST
Moon 10:40 PM EST (1/13) 10:07 AM EST (1/13)
Length of Visible Light 10h 45m
Length of Day
9h 48m
Waning Gibbous, 79% of the Moon is Illuminated
Jan 13
Waning Gibbous
Jan 16
Last Quarter
Jan 23
New
Jan 30
First Quarter
Feb 7
Full

Hourly Weather History & Observations

Time (EST) Temp. Windchill Dew Point Humidity Pressure Visibility Wind Dir Wind Speed Gust Speed Precip Events Conditions
12:00 AM 21.2 °F 12.6 °F 17.6 °F 86% 29.73 in 4.0 mi Variable 6.9 mph - 0.00 in Snow Light Snow
12:53 AM 21.9 °F 11.0 °F 16.0 °F 78% 29.75 in 4.0 mi SW 10.4 mph 23.0 mph 0.00 in Snow Light Snow
1:36 AM 21.2 °F 9.5 °F 17.6 °F 86% 29.74 in 1.8 mi West 11.5 mph 20.7 mph 0.00 in Snow Light Snow
1:39 AM 21.2 °F 9.5 °F 17.6 °F 86% 29.74 in 1.5 mi WSW 11.5 mph 23.0 mph 0.00 in Snow Light Snow
1:51 AM 21.2 °F 7.3 °F 15.8 °F 80% 29.74 in 0.8 mi West 16.1 mph 27.6 mph 0.00 in Snow Light Snow
1:53 AM 19.9 °F 7.3 °F 16.0 °F 85% 29.77 in 0.8 mi WSW 12.7 mph 27.6 mph 0.00 in Snow Light Snow
2:04 AM 19.4 °F 6.0 °F 15.8 °F 86% 29.74 in 1.0 mi West 13.8 mph 21.9 mph 0.00 in Snow Light Snow
2:19 AM 19.4 °F 9.5 °F 15.8 °F 86% 29.75 in 2.0 mi WSW 8.1 mph 21.9 mph 0.00 in Snow Light Snow
2:35 AM 21.2 °F 13.6 °F 15.8 °F 80% 29.76 in 3.0 mi Variable 5.8 mph - 0.00 in Snow Light Snow
2:53 AM 21.0 °F 13.4 °F 15.1 °F 78% 29.78 in 6.0 mi Variable 5.8 mph - 0.00 in Snow Light Snow
3:53 AM 19.9 °F 7.9 °F 12.9 °F 74% 29.80 in 2.0 mi WSW 11.5 mph 27.6 mph 0.00 in Snow Light Snow
3:55 AM 19.4 °F 7.2 °F 12.2 °F 74% 29.77 in 1.5 mi WSW 11.5 mph 27.6 mph N/A Snow Light Snow
4:05 AM 19.4 °F 7.9 °F 12.2 °F 74% 29.77 in 2.0 mi WSW 10.4 mph 24.2 mph 0.01 in Snow Light Snow
4:25 AM 19.4 °F 10.4 °F 14.0 °F 80% 29.77 in 4.0 mi Variable 6.9 mph - 0.01 in Snow Light Snow
4:44 AM 19.4 °F 8.6 °F 12.2 °F 74% 29.78 in 1.8 mi WSW 9.2 mph 20.7 mph 0.01 in Snow Light Snow
4:53 AM 19.0 °F 6.8 °F 14.0 °F 81% 29.82 in 1.0 mi WSW 11.5 mph 18.4 mph 0.01 in Snow Light Snow
5:03 AM 19.4 °F 8.6 °F 14.0 °F 80% 29.79 in 0.8 mi SW 9.2 mph 21.9 mph 0.00 in Snow Light Snow
5:14 AM 17.6 °F 4.3 °F 14.0 °F 86% 29.79 in 1.0 mi WSW 12.7 mph 23.0 mph 0.01 in Snow Light Snow
5:53 AM 18.0 °F 6.9 °F 14.0 °F 84% 29.85 in 1.2 mi WSW 9.2 mph - 0.01 in Snow Light Snow
6:11 AM 17.6 °F 8.2 °F 14.0 °F 86% 29.82 in 1.0 mi Variable 6.9 mph - 0.01 in Snow Light Snow
6:27 AM 17.6 °F 6.4 °F 12.2 °F 79% 29.82 in 2.0 mi SW 9.2 mph - 0.01 in Snow Light Snow
6:39 AM 17.6 °F 5.7 °F 12.2 °F 79% 29.83 in 3.0 mi WSW 10.4 mph 17.3 mph 0.01 in Snow Light Snow
6:53 AM 18.0 °F 7.7 °F 12.9 °F 81% 29.88 in 7.0 mi WSW 8.1 mph - 0.01 in   Overcast
7:09 AM 19.4 °F 8.6 °F 14.0 °F 80% 29.84 in 1.5 mi SW 9.2 mph 18.4 mph 0.00 in Snow Light Snow
7:13 AM 17.6 °F 7.3 °F 14.0 °F 86% 29.84 in 0.5 mi West 8.1 mph 17.3 mph 0.00 in Fog , Snow Snow
7:28 AM 17.6 °F 5.7 °F 12.2 °F 79% 29.85 in 1.2 mi West 10.4 mph 27.6 mph 0.00 in Snow Light Snow
7:31 AM 17.6 °F 8.2 °F 12.2 °F 79% 29.86 in 2.0 mi Variable 6.9 mph 23.0 mph 0.00 in Snow Light Snow
7:34 AM 17.6 °F 6.4 °F 12.2 °F 79% 29.86 in 3.0 mi WSW 9.2 mph 24.2 mph 0.00 in Snow Light Snow
7:41 AM 17.6 °F 2.7 °F 12.2 °F 79% 29.86 in 5.0 mi SW 16.1 mph 31.1 mph 0.00 in Snow Light Snow
7:53 AM 18.0 °F 3.1 °F 10.9 °F 74% 29.92 in 10.0 mi WSW 16.1 mph 29.9 mph 0.00 in   Overcast
8:00 AM 17.6 °F 5.7 °F 10.4 °F 73% 29.88 in 10.0 mi WSW 10.4 mph 29.9 mph N/A   Overcast
8:53 AM 17.6 °F 5.7 °F 8.6 °F 68% 29.91 in 10.0 mi WSW 10.4 mph 26.5 mph N/A   Overcast
9:53 AM 18.0 °F 7.7 °F 9.0 °F 68% 29.99 in 9.0 mi WSW 8.1 mph 24.2 mph N/A   Overcast
10:53 AM 19.0 °F 7.5 °F 10.9 °F 71% 30.01 in 6.0 mi WSW 10.4 mph 24.2 mph 0.00 in Snow Light Snow
11:53 AM 19.9 °F 9.3 °F 10.9 °F 68% 30.01 in 10.0 mi WSW 9.2 mph 16.1 mph 0.00 in   Overcast
12:53 PM 21.0 °F 11.4 °F 12.9 °F 71% 30.01 in 8.0 mi SW 8.1 mph 16.1 mph 0.00 in Snow Light Snow
1:16 PM 21.2 °F 14.9 °F 14.0 °F 74% 29.96 in 2.0 mi Variable 4.6 mph - 0.00 in Snow Light Snow
1:26 PM 21.2 °F 12.6 °F 14.0 °F 74% 29.96 in 7.0 mi Variable 6.9 mph 17.3 mph 0.00 in Snow Light Snow
1:46 PM 21.2 °F 14.9 °F 14.0 °F 74% 29.96 in 1.8 mi WSW 4.6 mph - 0.00 in Snow Light Snow
1:53 PM 21.0 °F 16.2 °F 15.1 °F 78% 30.02 in 1.0 mi Variable 3.5 mph - 0.00 in Snow Light Snow
2:00 PM 21.2 °F 13.6 °F 15.8 °F 80% 29.97 in 0.8 mi Variable 5.8 mph - 0.00 in Snow Light Snow
2:10 PM 21.2 °F 12.6 °F 15.8 °F 80% 29.97 in 1.0 mi WSW 6.9 mph - 0.00 in Snow Light Snow
2:53 PM 21.9 °F 13.4 °F 17.1 °F 82% 30.02 in 2.0 mi Variable 6.9 mph - 0.00 in Snow Light Snow
3:24 PM 21.2 °F 14.9 °F 15.8 °F 80% 29.99 in 3.0 mi Variable 4.6 mph 16.1 mph 0.00 in Snow Light Snow
3:53 PM 23.0 °F 13.1 °F 16.0 °F 74% 30.04 in 4.0 mi West 9.2 mph 16.1 mph 0.00 in Snow Light Snow
4:53 PM 23.0 °F 15.8 °F 16.0 °F 74% 30.07 in 3.0 mi Variable 5.8 mph - 0.00 in Snow Light Snow
5:09 PM 23.0 °F 18.4 °F 15.8 °F 74% 30.02 in 2.0 mi Variable 3.5 mph - 0.00 in Snow Light Snow
5:44 PM 23.0 °F 15.8 °F 17.6 °F 80% 30.03 in 3.0 mi Variable 5.8 mph - 0.00 in Snow Light Snow
5:53 PM 23.0 °F 15.8 °F 17.1 °F 78% 30.09 in 3.0 mi Variable 5.8 mph - 0.00 in Snow Light Snow
6:53 PM 23.0 °F 17.0 °F 18.0 °F 81% 30.10 in 6.0 mi Variable 4.6 mph - 0.00 in Snow Light Snow
7:53 PM 23.0 °F 15.8 °F 17.1 °F 78% 30.12 in 6.0 mi Variable 5.8 mph - 0.00 in Snow Light Snow
8:33 PM 23.0 °F 14.7 °F 17.6 °F 80% 30.08 in 6.0 mi West 6.9 mph - 0.00 in Snow Light Snow
8:53 PM 23.0 °F 17.0 °F 16.0 °F 74% 30.14 in 8.0 mi Variable 4.6 mph - 0.00 in   Overcast
9:53 PM 21.9 °F 17.2 °F 16.0 °F 78% 30.14 in 6.0 mi Variable 3.5 mph - 0.00 in   Haze
10:09 PM 21.2 °F - 17.6 °F 86% 30.08 in 9.0 mi Calm Calm - N/A   Overcast
10:53 PM 21.9 °F - 17.1 °F 82% 30.13 in 10.0 mi Calm Calm - 0.00 in   Overcast
11:40 PM 23.0 °F - 17.6 °F 80% 30.08 in 9.0 mi Calm Calm - 0.00 in   Overcast
11:53 PM 21.9 °F 17.2 °F 17.1 °F 82% 30.14 in 10.0 mi WNW 3.5 mph - 0.00 in   Overcast